Location: Notre Dame Regional High School Observatory
(37.3056°N, 89.6097°W)
Time: 08:30:55
(UTC-05:00)

Okean-O - Visible Passes

Search period start: 16 August 2017 00:00
Search period end: 26 August 2017 00:00
Orbit: 640 x 641 km, 98.2° (Epoch: 15 August)

Date Brightness Start Highest point End Pass type
(mag) Time Alt. Az. Time Alt. Az. Time Alt. Az.
16 Aug 5.3 04:55:58 10° NE 04:59:04 18° E 05:02:09 10° SE visible
17 Aug 4.4 05:18:43 10° NNE 05:22:44 33° E 05:26:44 10° SSE visible
18 Aug 3.2 05:41:56 10° NNE 05:46:21 62° E 05:50:44 10° S visible
20 Aug 5.4 04:53:48 10° NE 04:56:44 17° E 04:59:39 10° SE visible
21 Aug 4.5 05:16:29 10° NE 05:20:25 31° E 05:24:21 10° SSE visible
22 Aug 3.3 05:39:39 10° NNE 05:44:02 58° E 05:48:23 10° S visible
24 Aug 5.4 04:51:40 10° NE 04:54:24 16° E 04:57:08 10° SE visible
25 Aug 4.7 05:14:14 10° NE 05:18:06 29° E 05:21:56 10° SSE visible
